SCP
-0 0 0 0 0 0 0 0 0 0 1 1 1 1 1 1 0 1 1 0 1 0 0 0 0 0 0 0 0 0 0 0 0 0 0 0 0 0 0 0 0 0 0
0 0 0 0 0 0 0 0 0 0 1 1 1 1 1 1 1 1 1 0 0 0 0 0 0 0 0 0 0 0 0 0 0 0 0 0 0 0 0 0 0 0 0
0 0 0 0 0 0 0 0 0 0 1 1 1 2 1 1 1 1 1 1 0 0 0 0 0 0 0 0 0 0 0 0 0 0 0 0 0 0 0 0 0 0 0
0 0 0 0 0 0 1 1 1 2 2 2 2 4 3 3 1 1 0 1 0 0 0 0 0 0 0 0 0 0 0 0 0 0 0 0 0 0 0 0 0 0 0
0 0 0 1 1 2 2 3 5 5 6 5 5 4 3 2 1 0 0 0 0 0 0 0 0 0 0 0 0 0 0 0 0 0 0 0 0 0 0 0 0 0 0
0 1 1 2 3 2 3 5 9 10 10 9 7 5 3 2 1 0 0 0 0 0 0 0 0 0 0 0 0 0 0 0 0 0 0 0 0 0 0 0 0 0 0
1 1 1 2 3 5 7 8 7 11 10 8 6 4 4 2 1 0 0 0 0 0 0 0 0 0 0 0 0 0 0 0 0 0 0 0 0 0 0 0 0 0 0
1 1 1 2 4 4 5 5 5 6 6 6 5 4 3 1 0 0 0 0 0 0 0 0 0 0 0 0 0 0 0 0 0 0 0 0 0 0 0 0 0 0 0
0 0 1 2 2 4 5 4 4 4 3 2 2 1 1 0 0 0 0 0 0 0 0 0 0 0 0 0 0 0 0 0 0 0 0 0 0 0 0 0 0 0 0
1 0 1 1 3 3 4 4 4 3 2 2 1 1 0 0 0 0 0 0 0 0 0 0 0 0 0 0 0 0 0 0 0 0 0 0 0 0 0 0 0 0 0
0 1 1 2 2 2 3 3 3 2 1 1 1 0 0 0 0 0 0 0 0 0 0 0 0 0 0 0 0 0 0 0 0 0 0 0 0 0 0 0 0 0 0
-0 1 1 1 2 3 3 3 2 2 1 1 0 0 0 0 0 0 0 0 0 0 0 0 0 0 0 0 0 0 0 0 0 0 0 0 0 0 0 0 0 0 0
1 -0 1 2 4 5 3 2 2 1 1 0 0 0 0 0 0 0 0 0 0 0 0 0 0 0 0 0 0 0 0 0 0 0 0 0 0 0 0 0 0 0 0
1 1 1 1 2 5 4 2 1 1 0 0 0 0 0 0 0 0 0 0 0 0 0 0 0 0 0 0 0 0 0 0 0 0 0 0 0 0 0 0 0 0 0
2 1 1 1 2 3 3 2 1 0 0 0 0 0 0 0 0 0 0 0 0 0 0 0 0 0 0 0 0 0 0 0 0 0 0 0 0 0 0 0 0 0 0
2 1 1 1 1 2 3 1 0 0 0 0 0 0 0 0 0 0 0 0 0 0 0 0 0 0 0 0 0 0 0 0 0 0 0 0 0 0 0 0 0 0 0
0 1 1 1 1 2 2 0 0 0 0 0 0 0 0 0 0 0 0 0 0 0 0 0 0 0 0 0 0 0 0 0 0 0 0 0 0 0 0 0 0 0 0
0 0 1 1 0 1 0 0 0 0 0 0 0 0 0 0 0 0 0 0 0 0 0 0 0 0 0 0 0 0 0 0 0 0 0 0 0 0 0 0 0 0 0
0 1 0 0 0 0 0 0 0 0 0 0 0 0 0 0 0 0 0 0 0 0 0 0 0 0 0 0 0 0 0 0 0 0 0 0 0 0 0 0 0 0 0
0 0 -0 -0 0 0 0 0 0 0 0 0 0 0 0 0 0 0 0 0 0 0 0 0 0 0 0 0 0 0 0 0 0 0 0 0 0 0 0 0 0 0 0
0 0 0 0 0 0 0 0 0 0 0 0 0 0 0 0 0 0 0 0 0 0 0 0 0 0 0 0 0 0 0 0 0 0 0 0 0 0 0 0 0 0 0
0 0 0 0 0 0 0 0 0 0 0 0 0 0 0 0 0 0 0 0 0 0 0 0 0 0 0 0 0 0 0 0 0 0 0 0 0 0 0 0 0 0 0
-0 -0 -0 0 0 0 0 0 0 0 0 0 0 0 0 0 0 0 0 0 0 0 0 0 0 0 0 0 0 0 0 0 0 0 0 0 0 0 0 0 0 0 0
-0 -0 -0 -0 0 0 0 0 0 0 0 0 0 0 0 0 0 0 0 0 0 0 0 0 0 0 0 0 0 0 0 0 0 0 0 0 0 0 0 0 0 0 0
-0 -0 -0 0 0 0 0 0 0 0 0 0 0 0 0 0 0 0 0 0 0 0 0 0 0 0 0 0 0 0 0 0 0 0 0 0 0 0 0 0 0 0 0
-0 -0 -0 0 0 0 0 0 0 0 0 0 0 0 0 0 0 0 0 0 0 0 0 0 0 0 0 0 0 0 0 0 0 0 0 0 0 0 0 0 0 0 0
Wind_Speed_500mb
94 91 87 84 79 81 84 78 75 65 68 64 60 64 75 69 60 55 48 49 49 52 51 49 44 43 44 44 45 43 42 45 49 54 55 50 34 21 23 22 28 23 18
81 94 95 89 84 83 84 81 74 68 68 66 61 56 55 56 53 53 52 56 56 57 54 47 45 45 41 40 41 42 43 46 45 47 45 18 35 12 16 28 13 20 30
63 88 96 95 89 86 88 84 76 68 67 67 63 58 52 50 49 53 56 66 62 55 46 42 45 41 39 39 39 42 45 46 40 39 27 11 8 39 27 25 10 22 28
31 64 101 102 96 92 85 80 75 71 67 63 63 61 62 65 62 64 61 67 65 52 39 41 37 36 35 33 37 41 42 42 41 30 24 22 28 15 14 26 33 30 36
31 50 79 97 100 91 78 74 71 72 69 66 63 61 61 62 64 58 64 62 55 36 33 31 32 34 31 35 38 41 38 35 34 26 25 18 24 23 27 39 37 39 45
25 26 56 78 86 77 75 71 69 69 67 65 63 56 57 60 52 52 57 58 42 31 32 34 32 30 33 36 40 39 35 31 28 23 16 20 22 26 34 40 43 50 53
30 36 46 55 75 76 71 68 62 59 53 54 54 54 57 57 59 56 52 50 39 34 33 30 24 28 33 39 40 33 26 24 19 19 21 24 28 32 36 39 48 51 61
40 51 55 63 66 61 58 57 56 51 51 48 45 52 54 53 48 44 42 33 31 25 29 26 28 33 38 40 33 27 22 20 21 24 29 31 32 37 40 43 51 60 57
40 58 58 53 51 52 48 47 53 50 39 29 39 41 39 40 36 32 31 32 30 29 29 30 33 36 36 31 28 26 27 25 28 31 33 37 42 41 42 48 54 54 58
11 45 47 49 46 40 39 44 48 39 27 23 25 34 33 31 32 36 32 29 32 30 30 32 35 36 31 28 29 31 32 34 33 35 36 35 42 41 44 55 52 52 59
10 35 51 48 42 41 42 46 47 37 29 22 20 32 34 26 26 26 25 27 28 29 29 31 30 28 27 29 34 36 37 36 37 34 42 44 44 46 60 63 51 48 56
8 16 43 43 39 35 35 43 45 39 30 21 13 28 34 30 30 30 31 30 28 28 28 26 25 25 29 34 39 38 35 38 37 40 41 45 52 61 68 50 44 47 54
41 19 44 47 44 43 42 49 45 36 26 17 17 19 26 27 28 32 30 27 24 22 23 23 25 31 36 37 36 38 40 40 41 42 47 54 64 65 45 44 50 54 48
46 37 31 49 54 48 48 48 43 36 27 17 16 18 21 22 20 20 19 18 17 20 20 23 29 36 40 41 40 40 35 36 44 48 47 52 58 48 47 49 49 53 54
53 48 43 29 53 54 49 42 44 36 27 13 19 16 16 15 16 16 14 15 19 20 22 28 33 38 42 37 34 35 38 41 43 47 56 58 53 45 47 53 55 53 63
51 55 48 44 44 62 53 52 43 36 21 12 18 16 15 13 16 13 10 15 18 20 27 31 40 35 28 27 30 36 42 44 48 51 57 57 49 49 46 42 51 62 66
54 58 57 41 31 42 47 36 22 13 22 17 5 17 12 12 9 6 7 13 18 22 30 36 36 21 25 34 41 44 50 56 59 60 51 54 47 49 64 78 85 66 52
57 57 58 50 22 25 29 24 34 23 52 23 15 12 11 6 2 8 12 16 18 27 35 31 16 33 39 41 46 52 53 59 54 51 51 58 70 79 76 56 48 45 43
60 47 51 52 38 19 23 32 20 32 38 25 17 11 11 5 7 11 15 21 25 29 11 15 29 37 39 39 32 50 45 46 49 55 67 79 68 47 47 56 60 60 58
56 43 45 46 34 30 18 28 29 36 28 21 19 11 9 13 15 15 18 23 22 6 15 20 30 30 34 33 41 31 37 53 67 75 73 56 50 48 38 34 35 35 34
50 51 49 46 37 27 5 22 19 17 18 20 11 8 9 13 14 22 20 19 9 15 17 23 26 31 30 31 32 46 59 68 69 62 57 47 35 33 35 33 31 31 36
43 49 47 47 32 14 10 10 13 13 12 12 8 7 15 17 21 16 16 8 12 21 26 30 26 26 28 36 49 59 65 63 60 50 43 35 34 34 36 33 33 30 26
46 36 43 38 37 16 14 18 17 15 13 10 12 14 13 8 9 13 13 13 24 32 32 20 20 25 35 48 57 62 63 56 44 40 33 27 33 29 32 28 23 20 18
40 45 35 51 37 28 21 20 20 15 18 14 16 12 4 8 6 15 22 21 20 22 13 19 24 33 47 60 66 66 58 45 40 36 33 32 33 28 24 21 23 16 13
45 47 43 43 32 33 26 22 21 21 24 15 11 4 3 5 15 15 12 13 13 14 22 27 33 47 60 63 60 51 43 38 37 33 32 32 33 32 29 28 23 16 10
42 47 43 40 28 32 28 23 28 34 22 16 9 6 6 2 10 10 11 12 16 20 27 32 44 55 56 49 42 38 37 35 34 33 33 31 28 28 28 27 28 17 17
Wind_Direction_500mb
210 206 205 207 208 211 212 215 214 216 215 219 221 224 230 234 239 241 239 245 246 247 255 266 274 273 269 270 276 282 288 300 301 304 308 310 310 290 282 307 321 310 310
212 209 204 207 213 214 212 214 220 222 224 226 225 229 233 236 238 237 239 247 248 254 255 266 272 277 268 273 282 286 294 296 300 305 312 320 320 296 315 313 321 329 331
220 210 204 210 214 215 214 217 223 226 228 230 227 230 229 232 235 233 232 241 246 249 262 268 274 270 273 281 285 291 294 297 299 304 305 318 301 317 318 312 307 321 330
224 209 207 207 215 218 216 219 224 227 230 233 229 228 232 231 240 239 239 238 241 247 254 271 267 271 275 281 290 294 297 298 298 301 294 294 304 331 309 315 299 305 314
201 201 209 211 210 214 219 223 225 228 230 233 237 237 234 238 240 240 236 236 244 248 267 272 279 276 281 288 298 302 301 299 301 303 301 302 316 311 320 322 328 317 311
161 187 206 208 210 213 220 223 225 227 227 230 236 234 238 235 239 239 235 240 248 253 272 277 282 280 285 295 305 303 302 300 302 303 298 320 315 329 327 318 317 316 316
168 177 191 198 204 213 220 221 223 222 222 226 236 239 238 249 256 255 257 251 241 249 274 279 282 282 290 304 305 303 303 308 296 296 301 306 307 304 308 304 310 310 316
188 187 190 196 200 208 214 220 227 230 227 230 235 248 249 250 251 256 258 243 244 264 270 278 289 292 300 304 301 307 316 317 302 298 293 299 298 298 300 306 313 311 309
199 192 194 196 204 213 224 231 230 224 227 255 255 247 238 239 246 248 243 244 262 270 275 281 284 292 300 301 309 318 321 317 321 305 293 294 296 292 300 302 303 309 300
275 216 214 212 211 216 227 231 232 235 244 249 249 239 236 238 241 245 246 260 272 272 274 277 285 295 297 308 318 312 309 300 301 310 300 300 296 293 297 300 303 302 299
8 254 217 203 205 219 231 238 232 223 231 243 247 234 229 229 245 254 265 270 269 271 277 285 289 294 309 314 301 301 301 295 303 305 299 301 303 300 300 300 297 297 297
22 249 217 215 222 232 244 239 220 222 211 219 237 238 232 241 248 247 253 256 264 270 279 287 294 304 304 298 297 299 298 298 297 297 300 307 308 307 305 297 298 299 302
42 208 213 219 232 238 234 216 221 219 215 208 255 242 238 240 246 247 249 252 260 275 290 299 306 304 301 299 299 299 297 297 300 302 305 311 313 311 302 296 295 303 309
36 37 231 226 233 235 227 219 214 213 207 228 249 249 248 255 244 244 251 266 284 301 308 310 307 305 302 301 298 298 302 306 303 305 308 311 311 315 308 304 303 303 309
26 18 9 266 230 231 220 224 220 204 201 241 277 278 269 253 249 255 265 288 304 307 307 307 309 310 306 308 300 302 308 307 307 306 308 304 302 304 300 300 301 297 302
19 10 0 356 239 231 221 234 211 201 190 247 294 271 266 261 257 252 290 309 300 306 311 311 306 314 325 325 316 311 306 309 305 301 299 291 291 289 288 289 296 299 303
17 14 6 341 286 232 239 211 194 305 260 220 261 258 260 271 254 257 289 310 308 303 308 311 319 334 331 322 312 310 302 302 296 294 297 301 293 297 304 301 300 296 289
18 14 11 6 332 254 247 246 285 258 231 211 202 218 234 200 277 287 302 292 291 302 312 319 321 317 318 315 307 305 302 298 299 303 301 302 308 307 304 301 296 283 281
13 11 9 4 353 313 286 272 275 203 208 204 207 214 180 154 286 259 257 281 297 313 344 332 318 315 314 318 315 317 305 303 302 301 307 314 316 310 294 292 294 295 300
13 9 6 7 4 2 318 226 195 191 203 199 188 177 179 224 257 256 273 300 307 326 334 324 313 309 311 304 322 311 309 307 313 317 322 320 315 310 321 320 317 318 323
11 5 360 1 2 1 354 179 186 200 195 189 159 172 226 237 256 276 295 301 315 336 328 308 293 295 296 316 321 323 325 326 325 327 325 327 338 332 331 324 318 315 317
353 352 349 343 341 335 312 281 268 255 203 196 180 225 241 264 283 295 323 310 329 315 310 299 279 292 307 321 325 329 331 331 328 332 334 335 328 324 323 323 321 316 313
338 332 339 338 325 292 274 279 302 216 200 215 222 241 272 268 343 19 16 330 314 314 310 293 309 316 325 327 328 332 337 338 341 340 338 323 325 320 321 330 339 331 323
333 337 307 327 301 281 273 266 260 206 212 227 239 245 243 48 10 319 314 318 324 326 328 330 327 327 326 327 335 344 343 349 349 355 360 355 354 351 348 1 1 355 2
328 331 315 317 286 283 262 260 246 225 216 226 225 221 51 68 316 323 333 341 347 348 335 330 331 331 334 340 346 346 352 353 355 353 352 354 357 1 6 10 8 357 5
309 321 316 326 291 282 264 253 230 220 211 212 173 117 118 6 307 318 336 355 348 346 339 338 336 339 343 350 353 358 356 351 353 355 355 355 359 1 4 4 2 20 10
Wind_Speed_850mb
94 91 87 84 79 81 84 78 75 65 68 64 60 64 75 69 60 55 48 49 49 52 51 49 44 43 44 44 45 43 42 45 49 54 55 50 34 21 23 22 28 23 18
81 94 95 89 84 83 84 81 74 68 68 66 61 56 55 56 53 53 52 56 56 57 54 47 45 45 41 40 41 42 43 46 45 47 45 18 35 12 16 28 13 20 30
63 88 96 95 89 86 88 84 76 68 67 67 63 58 52 50 49 53 56 66 62 55 46 42 45 41 39 39 39 42 45 46 40 39 27 11 8 39 27 25 10 22 28
31 64 101 102 96 92 85 80 75 71 67 63 63 61 62 65 62 64 61 67 65 52 39 41 37 36 35 33 37 41 42 42 41 30 24 22 28 15 14 26 33 30 36
31 50 79 97 100 91 78 74 71 72 69 66 63 61 61 62 64 58 64 62 55 36 33 31 32 34 31 35 38 41 38 35 34 26 25 18 24 23 27 39 37 39 45
25 26 56 78 86 77 75 71 69 69 67 65 63 56 57 60 52 52 57 58 42 31 32 34 32 30 33 36 40 39 35 31 28 23 16 20 22 26 34 40 43 50 53
30 36 46 55 75 76 71 68 62 59 53 54 54 54 57 57 59 56 52 50 39 34 33 30 24 28 33 39 40 33 26 24 19 19 21 24 28 32 36 39 48 51 61
40 51 55 63 66 61 58 57 56 51 51 48 45 52 54 53 48 44 42 33 31 25 29 26 28 33 38 40 33 27 22 20 21 24 29 31 32 37 40 43 51 60 57
40 58 58 53 51 52 48 47 53 50 39 29 39 41 39 40 36 32 31 32 30 29 29 30 33 36 36 31 28 26 27 25 28 31 33 37 42 41 42 48 54 54 58
11 45 47 49 46 40 39 44 48 39 27 23 25 34 33 31 32 36 32 29 32 30 30 32 35 36 31 28 29 31 32 34 33 35 36 35 42 41 44 55 52 52 59
10 35 51 48 42 41 42 46 47 37 29 22 20 32 34 26 26 26 25 27 28 29 29 31 30 28 27 29 34 36 37 36 37 34 42 44 44 46 60 63 51 48 56
8 16 43 43 39 35 35 43 45 39 30 21 13 28 34 30 30 30 31 30 28 28 28 26 25 25 29 34 39 38 35 38 37 40 41 45 52 61 68 50 44 47 54
41 19 44 47 44 43 42 49 45 36 26 17 17 19 26 27 28 32 30 27 24 22 23 23 25 31 36 37 36 38 40 40 41 42 47 54 64 65 45 44 50 54 48
46 37 31 49 54 48 48 48 43 36 27 17 16 18 21 22 20 20 19 18 17 20 20 23 29 36 40 41 40 40 35 36 44 48 47 52 58 48 47 49 49 53 54
53 48 43 29 53 54 49 42 44 36 27 13 19 16 16 15 16 16 14 15 19 20 22 28 33 38 42 37 34 35 38 41 43 47 56 58 53 45 47 53 55 53 63
51 55 48 44 44 62 53 52 43 36 21 12 18 16 15 13 16 13 10 15 18 20 27 31 40 35 28 27 30 36 42 44 48 51 57 57 49 49 46 42 51 62 66
54 58 57 41 31 42 47 36 22 13 22 17 5 17 12 12 9 6 7 13 18 22 30 36 36 21 25 34 41 44 50 56 59 60 51 54 47 49 64 78 85 66 52
57 57 58 50 22 25 29 24 34 23 52 23 15 12 11 6 2 8 12 16 18 27 35 31 16 33 39 41 46 52 53 59 54 51 51 58 70 79 76 56 48 45 43
60 47 51 52 38 19 23 32 20 32 38 25 17 11 11 5 7 11 15 21 25 29 11 15 29 37 39 39 32 50 45 46 49 55 67 79 68 47 47 56 60 60 58
56 43 45 46 34 30 18 28 29 36 28 21 19 11 9 13 15 15 18 23 22 6 15 20 30 30 34 33 41 31 37 53 67 75 73 56 50 48 38 34 35 35 34
50 51 49 46 37 27 5 22 19 17 18 20 11 8 9 13 14 22 20 19 9 15 17 23 26 31 30 31 32 46 59 68 69 62 57 47 35 33 35 33 31 31 36
43 49 47 47 32 14 10 10 13 13 12 12 8 7 15 17 21 16 16 8 12 21 26 30 26 26 28 36 49 59 65 63 60 50 43 35 34 34 36 33 33 30 26
46 36 43 38 37 16 14 18 17 15 13 10 12 14 13 8 9 13 13 13 24 32 32 20 20 25 35 48 57 62 63 56 44 40 33 27 33 29 32 28 23 20 18
40 45 35 51 37 28 21 20 20 15 18 14 16 12 4 8 6 15 22 21 20 22 13 19 24 33 47 60 66 66 58 45 40 36 33 32 33 28 24 21 23 16 13
45 47 43 43 32 33 26 22 21 21 24 15 11 4 3 5 15 15 12 13 13 14 22 27 33 47 60 63 60 51 43 38 37 33 32 32 33 32 29 28 23 16 10
42 47 43 40 28 32 28 23 28 34 22 16 9 6 6 2 10 10 11 12 16 20 27 32 44 55 56 49 42 38 37 35 34 33 33 31 28 28 28 27 28 17 17
Wind_Direction_850mb
210 206 205 207 208 211 212 215 214 216 215 219 221 224 230 234 239 241 239 245 246 247 255 266 274 273 269 270 276 282 288 300 301 304 308 310 310 290 282 307 321 310 310
212 209 204 207 213 214 212 214 220 222 224 226 225 229 233 236 238 237 239 247 248 254 255 266 272 277 268 273 282 286 294 296 300 305 312 320 320 296 315 313 321 329 331
220 210 204 210 214 215 214 217 223 226 228 230 227 230 229 232 235 233 232 241 246 249 262 268 274 270 273 281 285 291 294 297 299 304 305 318 301 317 318 312 307 321 330
224 209 207 207 215 218 216 219 224 227 230 233 229 228 232 231 240 239 239 238 241 247 254 271 267 271 275 281 290 294 297 298 298 301 294 294 304 331 309 315 299 305 314
201 201 209 211 210 214 219 223 225 228 230 233 237 237 234 238 240 240 236 236 244 248 267 272 279 276 281 288 298 302 301 299 301 303 301 302 316 311 320 322 328 317 311
161 187 206 208 210 213 220 223 225 227 227 230 236 234 238 235 239 239 235 240 248 253 272 277 282 280 285 295 305 303 302 300 302 303 298 320 315 329 327 318 317 316 316
168 177 191 198 204 213 220 221 223 222 222 226 236 239 238 249 256 255 257 251 241 249 274 279 282 282 290 304 305 303 303 308 296 296 301 306 307 304 308 304 310 310 316
188 187 190 196 200 208 214 220 227 230 227 230 235 248 249 250 251 256 258 243 244 264 270 278 289 292 300 304 301 307 316 317 302 298 293 299 298 298 300 306 313 311 309
199 192 194 196 204 213 224 231 230 224 227 255 255 247 238 239 246 248 243 244 262 270 275 281 284 292 300 301 309 318 321 317 321 305 293 294 296 292 300 302 303 309 300
275 216 214 212 211 216 227 231 232 235 244 249 249 239 236 238 241 245 246 260 272 272 274 277 285 295 297 308 318 312 309 300 301 310 300 300 296 293 297 300 303 302 299
8 254 217 203 205 219 231 238 232 223 231 243 247 234 229 229 245 254 265 270 269 271 277 285 289 294 309 314 301 301 301 295 303 305 299 301 303 300 300 300 297 297 297
22 249 217 215 222 232 244 239 220 222 211 219 237 238 232 241 248 247 253 256 264 270 279 287 294 304 304 298 297 299 298 298 297 297 300 307 308 307 305 297 298 299 302
42 208 213 219 232 238 234 216 221 219 215 208 255 242 238 240 246 247 249 252 260 275 290 299 306 304 301 299 299 299 297 297 300 302 305 311 313 311 302 296 295 303 309
36 37 231 226 233 235 227 219 214 213 207 228 249 249 248 255 244 244 251 266 284 301 308 310 307 305 302 301 298 298 302 306 303 305 308 311 311 315 308 304 303 303 309
26 18 9 266 230 231 220 224 220 204 201 241 277 278 269 253 249 255 265 288 304 307 307 307 309 310 306 308 300 302 308 307 307 306 308 304 302 304 300 300 301 297 302
19 10 0 356 239 231 221 234 211 201 190 247 294 271 266 261 257 252 290 309 300 306 311 311 306 314 325 325 316 311 306 309 305 301 299 291 291 289 288 289 296 299 303
17 14 6 341 286 232 239 211 194 305 260 220 261 258 260 271 254 257 289 310 308 303 308 311 319 334 331 322 312 310 302 302 296 294 297 301 293 297 304 301 300 296 289
18 14 11 6 332 254 247 246 285 258 231 211 202 218 234 200 277 287 302 292 291 302 312 319 321 317 318 315 307 305 302 298 299 303 301 302 308 307 304 301 296 283 281
13 11 9 4 353 313 286 272 275 203 208 204 207 214 180 154 286 259 257 281 297 313 344 332 318 315 314 318 315 317 305 303 302 301 307 314 316 310 294 292 294 295 300
13 9 6 7 4 2 318 226 195 191 203 199 188 177 179 224 257 256 273 300 307 326 334 324 313 309 311 304 322 311 309 307 313 317 322 320 315 310 321 320 317 318 323
11 5 360 1 2 1 354 179 186 200 195 189 159 172 226 237 256 276 295 301 315 336 328 308 293 295 296 316 321 323 325 326 325 327 325 327 338 332 331 324 318 315 317
353 352 349 343 341 335 312 281 268 255 203 196 180 225 241 264 283 295 323 310 329 315 310 299 279 292 307 321 325 329 331 331 328 332 334 335 328 324 323 323 321 316 313
338 332 339 338 325 292 274 279 302 216 200 215 222 241 272 268 343 19 16 330 314 314 310 293 309 316 325 327 328 332 337 338 341 340 338 323 325 320 321 330 339 331 323
333 337 307 327 301 281 273 266 260 206 212 227 239 245 243 48 10 319 314 318 324 326 328 330 327 327 326 327 335 344 343 349 349 355 360 355 354 351 348 1 1 355 2
328 331 315 317 286 283 262 260 246 225 216 226 225 221 51 68 316 323 333 341 347 348 335 330 331 331 334 340 346 346 352 353 355 353 352 354 357 1 6 10 8 357 5
309 321 316 326 291 282 264 253 230 220 211 212 173 117 118 6 307 318 336 355 348 346 339 338 336 339 343 350 353 358 356 351 353 355 355 355 359 1 4 4 2 20 10